Regional Weather Roundup
Issued by NWS Burlington, VT

Home | Current Version | Previous Version | Text Only | Print | Product List | Glossary On
Versions: 1 2 3 4 5 6 7 8 9 10 11 12 13 14 15 16 17 18 19 20 21 22 23 24 25 26 27 28 29 30 31 32 33 34 35 36 37 38 39 40 41 42 43 44 45 46 47 48 49 50
000
ASUS41 KBTV 011630
RWRBTV
VERMONT REGIONAL WEATHER ROUNDUP
NATIONAL WEATHER SERVICE BURLINGTON VT
1100 AM EST SUN FEB 01 2015

NOTE: "FAIR" INDICATES FEW OR NO CLOUDS BELOW 12,000 FEET WITH NO
SIGNIFICANT WEATHER AND/OR OBSTRUCTIONS TO VISIBILITY.

* THESE REPORTS ARE NOT UNDER NWS QUALITY CONTROL AND/OR DO NOT
  REPORT WEATHER SUCH AS PRECIPITATION AND FOG.

VTZ001>019-011700-
_____VERMONT_____


CITY           SKY/WX    TMP DP  RH WIND       PRES   REMARKS
BURLINGTON     PTSUNNY    8  -2  63 N13       30.26S WCI  -8
MONTPELIER     MOSUNNY    7  -2  66 W15       30.16S WCI -10
MORRISVILLE    LGT SNOW   7  -3  64 N14       30.19F WCI -10
ST. JOHNSBURY*   N/A      8  -3  61 MISG      30.14F
LYNDONVILLE*   FAIR       7  -6  55 W9        30.11F
MIDDLEBURY*    FAIR      11  -1  56 N15       30.20S WCI  -5
RUTLAND*       SUNNY     10   1  67 N8        30.15F
SPRINGFIELD    SUNNY     18   3  52 W10       30.13S WCI   6
HIGHGATE*      FAIR       6  -5  61 N7        30.29S
NEWPORT*       FAIR       4  -8  58 N9        30.16F
BENNINGTON     SUNNY     20   7  57 NW10      30.13S WCI   9
SUTTON*          N/A      5 N/A N/A MISG        N/A
GALLUP MILLS*    N/A      7 N/A N/A MISG        N/A
UNION VILLAGE*   N/A     14 N/A N/A MISG        N/A
MT. MANSFIELD*   N/A     -4 N/A N/A CALM        N/A

_____LAKE CHAMPLAIN_____


CITY           SKY/WX    TMP DP  RH WIND       PRES   REMARKS
BURTON ISLAND*   N/A      9   0  66 NW9         N/A
COLCHESTER RF*   N/A     10   1  67 N20         N/A  WCI  -8
DIAMOND ISL*     N/A     12   5  73 N24         N/A  WCI  -8

$$

NYZ007-026>031-035-052-083-011700-
_____NORTHERN NEW YORK_____


CITY           SKY/WX    TMP DP  RH WIND       PRES   REMARKS
PLATTSBURGH    SUNNY      8  -3  61 N16       30.28S WCI -10
SARANAC LAKE   MOSUNNY    5  -4  66 VRB7      30.11S
MASSENA        SUNNY      1 -10  60 NW8       30.35F
OGDENSBURG*    SUNNY      9  -8  47 NE6       30.33S
POTSDAM*       SUNNY      3  -6  66 N7        30.31S
STARK FALLS*     N/A      3 N/A N/A N5          N/A
WATERTOWN      SUNNY      7  -3  64 NE16      30.30F WCI -11
FT DRUM        SUNNY      4  -4  69 NE12      30.25F WCI -13
ALBANY         MOSUNNY   23  12  62 NE7       30.19F
GLENS FALLS    SUNNY     14   4  64 NE15      30.20S WCI  -1

$$
NHZ002-005-011-011700-
_____NEW HAMPSHIRE_____


CITY           SKY/WX    TMP DP  RH WIND       PRES   REMARKS
LEBANON        SUNNY     14   0  53 CALM      30.14F
KEENE          SUNNY     18   5  57 CALM      30.13F
MT WASHINGTON  PTSUNNY  -11 -18  70 NW76G83     N/A  WCI -52
PLYMOUTH       FAIR      14   3  63 W22G30    30.10F WCI  -5
WHITEFIELD     MOSUNNY    7  -4  60 W12       30.10S WCI  -8

$$

_____REGIONAL QUEBEC LOCATIONS_____


CITY           SKY/WX    TMP DP  RH WIND       PRES   REMARKS
MONTREAL       MOSUNNY    3 -11  51 VRB5      30.32R
QUEBEC CITY    MOSUNNY    0 -13  55 W17       30.17S WCI -21
SHERBROOKE     CLOUDY     1  -8  66 W14       30.15F WCI -17

_____REGIONAL ONTARIO LOCATIONS_____


CITY           SKY/WX    TMP DP  RH WIND       PRES   REMARKS
OTTAWA         MOSUNNY   -2 -17  50 NW13      30.35F WCI -21

______KEY______
VSB  - VISIBILITY IN MILES
WCI  - WIND CHILL INDEX
HX   - HEAT INDEX
$$
NNNN


USA.gov is the U.S. government's official web portal to all federal, state and local government web resources and services.